Preview of NWS' New Version of Forecast
This preview is not operational and should not be used for support decisions.

Regional Weather Roundup (RWR)

Issued by Gray - Portland, ME (GYX)

                            
206 
ASUS41 KGYX 190505
RWRGYX
WEATHER ROUNDUP FOR MAINE AND NEW HAMPSHIRE
NATIONAL WEATHER SERVICE GRAY ME
1200 AM EST MON FEB 19 2018

MEZ002-005-006-010-012-015-018-020-021-024-026-027-029-190600-
MAINE
  
CITY           SKY/WX    TMP DP  RH WIND       PRES   REMARKS
PORTLAND       FAIR      22  19  89 CALM      30.51S                  
SANFORD        FAIR      15  13  91 CALM      30.51S                  
BAR HARBOR     FAIR      26  21  81 W5        30.51S                  
WISCASSET      FAIR      19  18  95 CALM      30.52S                  
ROCKLAND       FAIR      23  19  85 CALM      30.52R                  
FRYEBURG       FAIR      17  15  92 CALM      30.47S                  
LEWISTONAUBURN FAIR      16  14  92 S3        30.49S                  
AUGUSTA        FAIR      26  17  68 CALM      30.49S                  
WATERVILLE     FAIR      20  15  81 CALM      30.44R                  
BANGOR         FAIR      15  13  91 CALM      30.47F                  
GREENVILLE       N/A     14  10  84 CALM      30.37R                  
MILLINOCKET    FAIR      11   9  92 CALM      30.47R FOG              
HOULTON        FAIR      10   7  87 CALM      30.41S                  
PRESQUE ISLE   FAIR       7   4  87 CALM      30.41R                  
FRENCHVILLE    FAIR      19  14  81 SW5       30.35R                  
CARIBOU        FAIR      15   9  76 SW3       30.38R                  
$$

NHZ002-005-008-009-011-012-014-190600-
NEW HAMPSHIRE
  
CITY           SKY/WX    TMP DP  RH WIND       PRES   REMARKS
PORTSMOUTH     PTCLDY    24  19  82 CALM      30.50F                  
ROCHESTER      FAIR      22  17  81 CALM      30.49S                  
NASHUA         FAIR      18  16  92 CALM      30.52S                  
MANCHESTER     FAIR      25  19  78 CALM      30.50S                  
CONCORD        FAIR      22  17  81 CALM      30.50R                  
LACONIA        FAIR      15  13  91 CALM      30.49R                  
PLYMOUTH       FAIR      15  13  93 CALM      30.49R                  
BERLIN         FAIR       8   5  87 CALM      30.41F                  
WHITEFIELD     FAIR       8   6  92 CALM      30.41F                  
JAFFREY        FAIR      18  16  92 S3        30.47S                  
LEBANON        FAIR      16  14  92 CALM      30.46R                  
MT WASHINGTON  PTCLDY    19  -4  35 NW25        N/A  WCI   2          
$$

VTZ005-007-008-190600-
VERMONT
  
CITY           SKY/WX    TMP DP  RH WIND       PRES   REMARKS
ST JOHNSBURY     N/A     16  15  96 MISG      30.42F                  
MONTPELIER     FAIR      26  19  74 S5        30.43S                  
BURLINGTON     FAIR      32  20  61 S6        30.41R                  
$$

MAZ007-012-024-CTZ003-RIZ002-NYZ038-NYZ072-190600-
SOUTHERN NEW ENGLAND AND NY
  
CITY           SKY/WX    TMP DP  RH WIND       PRES   REMARKS
BOSTON         FAIR      34  22  61 S5        30.55R                  
WORCESTER      FAIR      28  18  66 W5        30.49R                  
NANTUCKET      FAIR      28  28 100 CALM      30.55R                  
PROVIDENCE     FAIR      30  24  78 CALM      30.56R                  
HARTFORD       FAIR      25  21  85 CALM      30.53F                  
ALBANY         FAIR      24  18  77 S3        30.48F                  
NEW YORK CITY  FAIR      36  26  67 CALM      30.52S                  
$$

ANZ081-ANZ082-ANZ150-NHZ014-MEZ023>029-190600-
COASTAL MARINE OBSERVATIONS
  
STATION/POSITION TIME  TEMP    WIND        PRES    WAVE
                       AIR SEA DIR/SP/G            HT/PER
                 (UTC) (F)     (DEG/KT/KT) (MB)    (FT/S)
MOUNT DESERT ROC 0500   35     300/ 15/ 16 1033.2R
MATINICUS ROCK   0400   35     320/ 11/ 12 1032.8R
ISLE OF SHOALS   0400   36     340/  3/  4 1033.3R
JEFFREYS LEDGE   0436      42                N/A     3/ 8
GEORGES BANK BUO 0350   41 59              1007.7   21/10
$$

.............KEY..............
   WCI - WIND CHILL
   TC  - TEMPERATURE IN CELSIUS
   VSB - VISIBILITY IN MILES
   HX  - HEAT INDEX
   FAIR- INDICATES FEW OR NO CLOUDS BELOW 12,000 FT, WITH NO 
         SIGNIFICANT WEATHER AND/OR OBSTRUCTIONS TO VISIBILITY.